User: anonymous
Location: Deer Path Park
(40.5570°N, 74.8450°W)
Time: 21:34:19
(UTC-04:00)
Language:

Iridium 49 - Orbit

View from above orbital plane
View from above orbital plane
View from above satellite
View from above satellite

Ground track
Ground track

The orbit data is extracted from the following two-line orbital elements,

1 25108U 97082E   14205.44768083  .00000183  00000-0  58280-4 0  8464
2 25108 086.3995 337.9732 0002216 111.6990 311.4196 14.34216166868629
Epoch (UTC): 24 July 2014 10:44:39
Eccentricity: 0.0002216
inclination: 86.3995°
perigee height: 776 km
apogee height: 779 km
right ascension of ascending node: 337.9732°
argument of perigee: 111.6990°
revolutions per day: 14.34216166
mean anomaly at epoch: 311.4196°
orbit number at epoch: 86862

The dashed part of the orbit path shows where the satellite is in the earth's shadow,  

DLR